Weather reports worldwide

Advertisment
Achnagart, United Kingdom (99191): temperature & dewpoint: 22.02.2020 09:00:00 - 28.02.2020 09:00:00 (GMT)Achnagart, United Kingdom (99191): precipitation: 22.02.2020 09:00:00 - 28.02.2020 09:00:00 (GMT)
Date & Time tt [°C] td [°C] rr [mm]
28.02.2020 09:00:00 - - -
28.02.2020 08:00:00 - - -
28.02.2020 07:00:00 - - -
28.02.2020 06:00:00 - - -
28.02.2020 05:00:00 - - -
28.02.2020 04:00:00 - - -
28.02.2020 03:00:00 - - -
28.02.2020 02:00:00 - - -
28.02.2020 01:00:00 2,3 1,7 0,2
28.02.2020 00:00:00 1,5 1,3 2,0
27.02.2020 23:00:00 1,2 0,8 1,6
27.02.2020 22:00:00 2,2 1,6 1,4
27.02.2020 21:00:00 2,6 1,5 0,8
27.02.2020 20:00:00 3,8 0,9 0,0
27.02.2020 19:00:00 3,6 -0,6 0,0
27.02.2020 18:00:00 4,7 -0,8 0,0
27.02.2020 17:00:00 5,3 -0,7 0,0
27.02.2020 16:00:00 5,0 0,4 0,0
27.02.2020 15:00:00 4,4 -0,9 0,0
27.02.2020 14:00:00 4,5 -0,2 0,2
27.02.2020 13:00:00 5,3 -0,1 0,0
27.02.2020 12:00:00 4,0 0,4 2,4
27.02.2020 11:00:00 2,0 0,8 3,0
27.02.2020 10:00:00 2,2 -0,3 0,8
27.02.2020 09:00:00 0,9 -0,1 0,0
27.02.2020 08:00:00 2,7 -1,9 0,0
27.02.2020 07:00:00 1,2 -0,6 0,0
27.02.2020 06:00:00 1,1 -0,4 0,0
27.02.2020 05:00:00 1,2 -1,2 0,0
27.02.2020 04:00:00 0,1 -1,3 0,0
27.02.2020 03:00:00 1,5 -0,6 0,0
27.02.2020 02:00:00 0,4 -0,1 0,0
27.02.2020 01:00:00 -0,1 -0,4 0,0
27.02.2020 00:00:00 0,3 0,1 0,2
26.02.2020 23:00:00 0,4 0,1 0,0
26.02.2020 22:00:00 0,7 0,3 0,0
26.02.2020 21:00:00 0,6 0,3 0,2
26.02.2020 20:00:00 0,4 0,1 0,0
26.02.2020 19:00:00 0,6 0,0 0,2
26.02.2020 18:00:00 1,9 -0,8 0,0
26.02.2020 17:00:00 3,6 -2,0 0,0
26.02.2020 16:00:00 3,6 -2,0 0,0
26.02.2020 15:00:00 3,9 -2,2 0,0
26.02.2020 14:00:00 4,1 -3,3 0,0
26.02.2020 13:00:00 4,4 -2,1 0,0
26.02.2020 12:00:00 4,2 -2,4 0,0
26.02.2020 11:00:00 2,9 -1,2 0,0
26.02.2020 10:00:00 3,3 0,5 0,0
26.02.2020 09:00:00 2,9 -0,1 0,0
26.02.2020 08:00:00 2,3 0,3 1,0
26.02.2020 07:00:00 1,5 0,2 1,8
26.02.2020 06:00:00 1,9 0,7 0,6
26.02.2020 05:00:00 2,3 1,3 0,0
26.02.2020 04:00:00 1,0 0,8 0,0
26.02.2020 03:00:00 0,5 0,5 0,0
26.02.2020 02:00:00 0,3 0,2 0,0
26.02.2020 01:00:00 0,6 0,6 0,0
26.02.2020 00:00:00 0,6 0,5 0,0
25.02.2020 23:00:00 0,3 0,2 0,0
25.02.2020 22:00:00 -0,1 -0,3 0,0
25.02.2020 21:00:00 0,7 0,6 0,0
25.02.2020 20:00:00 0,2 0,0 0,0
25.02.2020 19:00:00 0,6 0,3 0,0
25.02.2020 18:00:00 1,1 0,7 0,4
25.02.2020 17:00:00 1,1 0,4 1,6
25.02.2020 16:00:00 3,4 2,2 0,0
25.02.2020 15:00:00 2,7 2,1 0,8
25.02.2020 14:00:00 6,0 2,0 0,0
25.02.2020 13:00:00 5,5 0,7 0,0
25.02.2020 12:00:00 5,3 2,2 0,0
25.02.2020 11:00:00 2,4 2,2 0,2
25.02.2020 10:00:00 0,7 0,6 0,0
25.02.2020 09:00:00 0,3 0,2 0,0
25.02.2020 08:00:00 -0,4 -0,6 0,0
25.02.2020 07:00:00 0,2 0,0 0,0
25.02.2020 06:00:00 0,4 0,1 0,0
25.02.2020 05:00:00 0,6 0,4 0,0
25.02.2020 04:00:00 -0,2 -0,3 0,0
25.02.2020 03:00:00 -0,5 -0,7 0,0
25.02.2020 02:00:00 -0,2 -0,4 0,0
25.02.2020 01:00:00 -0,5 -0,8 0,0
25.02.2020 00:00:00 -0,4 -0,8 0,0
24.02.2020 23:00:00 0,3 0,0 0,0
24.02.2020 22:00:00 0,5 0,3 0,0
24.02.2020 21:00:00 0,6 0,4 0,0
24.02.2020 20:00:00 0,6 0,1 0,0
24.02.2020 19:00:00 1,7 0,9 0,0
24.02.2020 18:00:00 2,5 1,6 0,2
24.02.2020 17:00:00 2,9 1,8 0,2
24.02.2020 16:00:00 3,0 1,8 0,2
24.02.2020 15:00:00 3,0 1,4 1,0
24.02.2020 14:00:00 3,4 0,7 0,8
24.02.2020 13:00:00 3,2 1,4 1,0
24.02.2020 12:00:00 3,0 1,5 1,0
24.02.2020 11:00:00 2,6 1,3 1,4
24.02.2020 10:00:00 2,3 1,0 1,4
24.02.2020 09:00:00 2,3 0,7 0,8
24.02.2020 08:00:00 2,5 0,2 0,4
24.02.2020 07:00:00 3,4 -1,8 0,0
24.02.2020 06:00:00 3,9 -2,6 0,0
24.02.2020 05:00:00 3,8 -2,0 0,0
24.02.2020 04:00:00 2,7 -0,5 0,0
24.02.2020 03:00:00 - - 0,0
24.02.2020 02:00:00 - - 0,0
24.02.2020 01:00:00 - - 0,0
24.02.2020 00:00:00 - - 0,0
23.02.2020 23:00:00 - - 0,0
23.02.2020 22:00:00 - - 0,0
23.02.2020 21:00:00 - - 0,0
23.02.2020 20:00:00 - - 0,0
23.02.2020 19:00:00 - - 1,4
23.02.2020 18:00:00 - - 0,0
23.02.2020 17:00:00 - - 0,4
23.02.2020 16:00:00 - - 0,0
23.02.2020 15:00:00 - - 0,8
23.02.2020 14:00:00 - - 0,4
23.02.2020 13:00:00 - - 1,4
23.02.2020 12:00:00 - - 0,0
23.02.2020 11:00:00 - - 1,4
23.02.2020 10:00:00 - - 2,4
23.02.2020 09:00:00 - - 0,4
23.02.2020 08:00:00 - - 0,2
23.02.2020 07:00:00 - - 0,2
23.02.2020 06:00:00 - - 0,2
23.02.2020 05:00:00 - - 0,8
23.02.2020 04:00:00 - - 0,0
23.02.2020 03:00:00 - - 0,0
23.02.2020 02:00:00 - - -
23.02.2020 01:00:00 - - 0,0
23.02.2020 00:00:00 5,1 -2,0 0,0
22.02.2020 23:00:00 4,8 -1,3 0,4
22.02.2020 22:00:00 5,3 -1,5 0,2
22.02.2020 21:00:00 4,7 -1,2 0,2
22.02.2020 20:00:00 5,0 -0,8 0,0
22.02.2020 19:00:00 5,0 -1,1 0,2
22.02.2020 18:00:00 5,2 -1,6 0,0
22.02.2020 17:00:00 5,4 -2,2 0,0
22.02.2020 16:00:00 5,5 -1,9 0,0
22.02.2020 15:00:00 5,8 -1,4 0,0
22.02.2020 14:00:00 5,7 -1,3 0,2
22.02.2020 13:00:00 5,4 -1,7 0,0
22.02.2020 12:00:00 5,1 -0,9 0,6
22.02.2020 11:00:00 4,0 -1,4 0,4
22.02.2020 10:00:00 3,9 -0,3 0,2
22.02.2020 09:00:00 3,9 -0,2 0,6

tt = temperature
td = dewpoint
rr = precipitation

Next stations